TimePST,TemperatureF,Dew PointF,Humidity,Sea Level PressureIn,VisibilityMPH,Wind Direction,Wind SpeedMPH,Gust SpeedMPH,PrecipitationIn,Events,Conditions,WindDirDegrees,DateUTC
12:58 AM,33.6,26.2,74,30.17,10.0,South,5.8,-,N/A,,Clear,170,2013-01-29 08:58:00
1:58 AM,37.9,27.3,66,30.16,10.0,SW,8.1,-,N/A,,Clear,230,2013-01-29 09:58:00
2:58 AM,38.7,28.4,67,30.15,10.0,West,13.8,-,N/A,,Clear,280,2013-01-29 10:58:00
3:58 AM,36.5,28.4,72,30.16,10.0,SSW,10.4,-,N/A,,Clear,210,2013-01-29 11:58:00
4:58 AM,38.3,28.2,67,30.15,10.0,SW,3.5,-,N/A,,Clear,220,2013-01-29 12:58:00
5:58 AM,37.0,28.4,71,30.18,40.0,SW,10.4,-,N/A,,Partly Cloudy,220,2013-01-29 13:58:00
6:58 AM,38.5,28.9,69,30.17,90.0,WSW,12.7,-,N/A,,Mostly Cloudy,240,2013-01-29 14:58:00
7:58 AM,37.2,28.8,71,30.19,90.0,SSW,9.2,-,N/A,,Mostly Cloudy,210,2013-01-29 15:58:00
8:58 AM,45.1,30.0,55,30.19,90.0,West,12.7,-,N/A,,Mostly Cloudy,260,2013-01-29 16:58:00
9:47 AM,48.2,28.4,46,30.14,90.0,West,19.6,24.2,N/A,,Mostly Cloudy,260,2013-01-29 17:47:00
9:58 AM,49.3,28.8,45,30.18,90.0,WSW,19.6,-,N/A,,Mostly Cloudy,250,2013-01-29 17:58:00
10:58 AM,51.3,29.1,43,30.17,90.0,WSW,18.4,-,N/A,,Mostly Cloudy,250,2013-01-29 18:58:00
11:58 AM,54.7,29.7,38,30.13,90.0,WSW,18.4,-,N/A,,Mostly Cloudy,250,2013-01-29 19:58:00
12:24 PM,55.4,30.2,38,30.10,90.0,West,12.7,19.6,N/A,,Mostly Cloudy,270,2013-01-29 20:24:00
12:58 PM,56.8,28.4,34,30.10,90.0,SW,5.8,-,N/A,,Mostly Cloudy,230,2013-01-29 20:58:00
1:58 PM,57.7,29.8,35,30.07,90.0,WSW,13.8,-,N/A,,Mostly Cloudy,240,2013-01-29 21:58:00
2:58 PM,58.3,30.4,35,30.06,90.0,West,11.5,-,N/A,,Mostly Cloudy,270,2013-01-29 22:58:00
3:58 PM,57.9,31.5,37,30.08,90.0,West,12.7,-,N/A,,Mostly Cloudy,260,2013-01-29 23:58:00
4:58 PM,54.1,31.6,42,30.11,90.0,West,8.1,-,N/A,,Mostly Cloudy,260,2013-01-30 00:58:00
5:58 PM,48.6,30.7,50,30.13,60.0,West,8.1,-,N/A,,Mostly Cloudy,260,2013-01-30 01:58:00
6:58 PM,44.1,31.3,61,30.17,60.0,WSW,5.8,-,N/A,,Mostly Cloudy,250,2013-01-30 02:58:00
7:58 PM,44.1,31.1,60,30.19,60.0,SSE,5.8,-,N/A,,Mostly Cloudy,150,2013-01-30 03:58:00
8:58 PM,39.9,30.7,70,30.21,60.0,SE,2.3,-,N/A,,Mostly Cloudy,140,2013-01-30 04:58:00
9:58 PM,37.8,29.8,73,30.22,60.0,East,3.5,-,N/A,,Mostly Cloudy,90,2013-01-30 05:58:00
10:58 PM,36.3,31.5,83,30.26,10.0,WSW,2.3,-,N/A,,Clear,250,2013-01-30 06:58:00
11:58 PM,33.6,29.7,85,30.27,10.0,East,2.3,-,N/A,,Clear,90,2013-01-30 07:58:00